| time (UTC) | temp C | wind direction | speed KPH | gust KPH | rain 1hr cm | rain 24hr cm | rain mn cm | humidity % | barometer mb |
| 20260510190341 | 15 | 227 | 3.2 | 9.7 | 0.00 | 0.15 | 0.00 | 53 | 1018.4 |
| 20260510185824 | 15 | 223 | 4.8 | 12.9 | 0.00 | 0.15 | 0.00 | 55 | 1018.3 |
| 20260510185321 | 15 | 234 | 3.2 | 9.7 | 0.00 | 0.15 | 0.00 | 56 | 1018.4 |
| 20260510184823 | 15 | 229 | 3.2 | 9.7 | 0.00 | 0.15 | 0.00 | 55 | 1018.3 |
| 20260510184319 | 15 | 239 | 4.8 | 14.5 | 0.00 | 0.15 | 0.00 | 55 | 1018.4 |
| 20260510183840 | 15 | 231 | 4.8 | 14.5 | 0.00 | 0.15 | 0.00 | 56 | 1018.2 |
| 20260510183342 | 15 | 238 | 6.4 | 12.9 | 0.00 | 0.15 | 0.00 | 54 | 1018.1 |
| 20260510182819 | 15 | 229 | 1.6 | 17.7 | 0.00 | 0.15 | 0.00 | 53 | 1018.1 |
| 20260510182335 | 15 | 236 | 3.2 | 17.7 | 0.00 | 0.15 | 0.00 | 51 | 1018.0 |
| 20260510181820 | 15 | 262 | 3.2 | 8.0 | 0.00 | 0.15 | 0.00 | 51 | 1017.8 |
| 20260510181337 | 15 | 235 | 3.2 | 9.7 | 0.00 | 0.15 | 0.00 | 52 | 1017.9 |
| 20260510180839 | 15 | 227 | 6.4 | 9.7 | 0.00 | 0.15 | 0.00 | 53 | 1017.8 |
| 20260510180336 | 15 | 276 | 1.6 | 9.7 | 0.00 | 0.15 | 0.00 | 52 | 1017.8 |
| 20260510175837 | 15 | 241 | 3.2 | 14.5 | 0.00 | 0.15 | 0.00 | 52 | 1017.9 |
| 20260510175335 | 15 | 248 | 4.8 | 14.5 | 0.00 | 0.15 | 0.00 | 50 | 1017.7 |
| 20260510174838 | 15 | 232 | 1.6 | 8.0 | 0.00 | 0.15 | 0.00 | 52 | 1017.7 |
| 20260510174354 | 15 | 325 | 0.0 | 9.7 | 0.00 | 0.15 | 0.00 | 43 | 1017.6 |
| 20260510173817 | 15 | 307 | 3.2 | 19.3 | 0.00 | 0.15 | 0.00 | 41 | 1017.7 |
| 20260510173333 | 14 | 279 | 4.8 | 19.3 | 0.00 | 0.15 | 0.00 | 42 | 1017.7 |
| 20260510172835 | 14 | 282 | 4.8 | 8.0 | 0.00 | 0.15 | 0.00 | 46 | 1017.7 |
| 20260510172330 | 13 | 35 | 3.2 | 9.7 | 0.00 | 0.15 | 0.00 | 49 | 1017.7 |
| 20260510171833 | 13 | 308 | 3.2 | 9.7 | 0.00 | 0.15 | 0.00 | 55 | 1017.9 |
| 20260510171337 | 13 | 287 | 0.0 | 4.8 | 0.00 | 0.15 | 0.00 | 56 | 1017.9 |
| 20260510170833 | 13 | 287 | 1.6 | 8.0 | 0.00 | 0.15 | 0.00 | 53 | 1018.0 |
| 20260510170354 | 13 | 232 | 3.2 | 8.0 | 0.00 | 0.15 | 0.00 | 51 | 1018.1 |
| 20260510165829 | 13 | 289 | 3.2 | 8.0 | 0.00 | 0.15 | 0.00 | 44 | 1018.1 |
| 20260510165352 | 13 | 267 | 3.2 | 9.7 | 0.00 | 0.15 | 0.00 | 56 | 1018.1 |
| 20260510164827 | 13 | 80 | 3.2 | 11.3 | 0.00 | 0.15 | 0.00 | 51 | 1018.1 |
| 20260510164331 | 13 | 266 | 1.6 | 11.3 | 0.00 | 0.15 | 0.00 | 45 | 1018.1 |
| 20260510163855 | 13 | 306 | 0.0 | 9.7 | 0.00 | 0.15 | 0.00 | 46 | 1018.1 |
| 20260510163331 | 13 | 251 | 6.4 | 9.7 | 0.00 | 0.15 | 0.00 | 46 | 1018.1 |
| 20260510162834 | 13 | 249 | 4.8 | 9.7 | 0.00 | 0.15 | 0.00 | 46 | 1018.1 |
| 20260510162330 | 13 | 293 | 4.8 | 11.3 | 0.00 | 0.15 | 0.00 | 44 | 1018.2 |
| 20260510161854 | 13 | 308 | 1.6 | 17.7 | 0.00 | 0.15 | 0.00 | 47 | 1018.2 |
| 20260510161329 | 13 | 241 | 3.2 | 17.7 | 0.00 | 0.15 | 0.00 | 48 | 1018.1 |
| 20260510160833 | 13 | 251 | 3.2 | 16.1 | 0.00 | 0.15 | 0.00 | 50 | 1018.1 |
| 20260510160357 | 13 | 306 | 3.2 | 11.3 | 0.00 | 0.15 | 0.00 | 45 | 1018.0 |
| 20260510155833 | 13 | 283 | 3.2 | 14.5 | 0.00 | 0.15 | 0.00 | 49 | 1018.0 |
| 20260510155354 | 12 | 298 | 4.8 | 14.5 | 0.00 | 0.15 | 0.00 | 48 | 1018.1 |
| 20260510154829 | 12 | 267 | 3.2 | 9.7 | 0.00 | 0.15 | 0.00 | 51 | 1017.9 |
| 20260510154332 | 12 | 276 | 3.2 | 8.0 | 0.00 | 0.15 | 0.00 | 52 | 1017.9 |
| 20260510153829 | 12 | 350 | 0.0 | 8.0 | 0.00 | 0.15 | 0.00 | 54 | 1017.9 |
| 20260510153334 | 12 | 329 | 1.6 | 6.4 | 0.00 | 0.15 | 0.00 | 54 | 1017.9 |
| 20260510152900 | 12 | 293 | 3.2 | 8.0 | 0.00 | 0.15 | 0.00 | 51 | 1017.9 |
| 20260510152333 | 12 | 287 | 1.6 | 8.0 | 0.00 | 0.15 | 0.00 | 51 | 1017.9 |
| 20260510151829 | 12 | 303 | 1.6 | 9.7 | 0.00 | 0.15 | 0.00 | 49 | 1017.8 |
| 20260510151333 | 12 | 293 | 1.6 | 8.0 | 0.00 | 0.15 | 0.00 | 51 | 1017.8 |
| 20260510150858 | 11 | 301 | 3.2 | 6.4 | 0.00 | 0.15 | 0.00 | 50 | 1017.6 |
| 20260510150335 | 11 | 289 | 3.2 | 14.5 | 0.00 | 0.15 | 0.00 | 51 | 1017.7 |
| 20260510145840 | 11 | 312 | 4.8 | 14.5 | 0.00 | 0.15 | 0.00 | 52 | 1017.5 |
| 20260510145357 | 11 | 261 | 8.0 | 14.5 | 0.00 | 0.15 | 0.00 | 55 | 1017.6 |
| 20260510144820 | 11 | 265 | 6.4 | 16.1 | 0.00 | 0.15 | 0.00 | 54 | 1017.4 |
| 20260510144359 | 11 | 240 | 8.0 | 16.1 | 0.00 | 0.15 | 0.00 | 54 | 1017.4 |
| 20260510143820 | 11 | 260 | 6.4 | 12.9 | 0.00 | 0.15 | 0.00 | 57 | 1017.3 |
| 20260510143340 | 11 | 326 | 1.6 | 4.8 | 0.00 | 0.15 | 0.00 | 60 | 1017.3 |
| 20260510142821 | 10 | 302 | 0.0 | 4.8 | 0.00 | 0.15 | 0.00 | 60 | 1017.3 |
| 20260510142332 | 10 | 297 | 1.6 | 6.4 | 0.00 | 0.15 | 0.00 | 59 | 1017.2 |
| 20260510141821 | 10 | 268 | 3.2 | 8.0 | 0.00 | 0.15 | 0.00 | 60 | 1017.1 |
| 20260510141333 | 10 | 261 | 4.8 | 8.0 | 0.00 | 0.15 | 0.00 | 60 | 1017.2 |
| 20260510140820 | 10 | 280 | 1.6 | 8.0 | 0.00 | 0.15 | 0.00 | 59 | 1017.1 |
| 20260510140333 | 10 | 296 | 1.6 | 6.4 | 0.00 | 0.15 | 0.00 | 60 | 1017.2 |
| 20260510135837 | 10 | 296 | 3.2 | 6.4 | 0.00 | 0.15 | 0.00 | 60 | 1017.2 |
| 20260510135401 | 10 | 297 | 0.0 | 4.8 | 0.00 | 0.15 | 0.00 | 63 | 1017.2 |
| 20260510134837 | 10 | 298 | 1.6 | 4.8 | 0.00 | 0.15 | 0.00 | 63 | 1017.2 |
| 20260510134333 | 10 | 299 | 1.6 | 4.8 | 0.00 | 0.15 | 0.00 | 66 | 1017.2 |
| 20260510133817 | 10 | 300 | 1.6 | 3.2 | 0.00 | 0.15 | 0.00 | 70 | 1017.2 |
| 20260510133333 | 9 | 299 | 0.0 | 6.4 | 0.00 | 0.15 | 0.00 | 69 | 1017.1 |
| 20260510132818 | 9 | 299 | 1.6 | 6.4 | 0.00 | 0.15 | 0.00 | 70 | 1017.2 |
| 20260510132334 | 9 | 311 | 0.0 | 3.2 | 0.00 | 0.15 | 0.00 | 71 | 1017.2 |
| 20260510131837 | 8 | 311 | 0.0 | 4.8 | 0.00 | 0.15 | 0.00 | 74 | 1017.1 |
| 20260510131333 | 8 | 311 | 1.6 | 4.8 | 0.00 | 0.15 | 0.00 | 76 | 1016.9 |
| 20260510130858 | 8 | 309 | 0.0 | 3.2 | 0.00 | 0.15 | 0.00 | 76 | 1016.9 |
| 20260510130339 | 8 | 277 | 0.0 | 1.6 | 0.00 | 0.15 | 0.00 | 77 | 1016.9 |
| 20260510125836 | 8 | 276 | 0.0 | 1.6 | 0.00 | 0.15 | 0.00 | 78 | 1016.9 |
| 20260510125332 | 8 | 277 | 0.0 | 6.4 | 0.00 | 0.15 | 0.00 | 78 | 1016.8 |
| 20260510124834 | 8 | 274 | 1.6 | 6.4 | 0.00 | 0.15 | 0.00 | 80 | 1016.7 |
| 20260510124329 | 8 | 345 | 1.6 | 3.2 | 0.00 | 0.15 | 0.00 | 81 | 1016.5 |
| 20260510123832 | 8 | 345 | 0.0 | 3.2 | 0.00 | 0.15 | 0.00 | 82 | 1016.6 |
| 20260510123354 | 7 | 345 | 1.6 | 3.2 | 0.00 | 0.15 | 0.00 | 83 | 1016.6 |
| 20260510122828 | 7 | 359 | 0.0 | 1.6 | 0.00 | 0.15 | 0.00 | 85 | 1016.6 |
| 20260510122325 | 7 | 359 | 0.0 | 1.6 | 0.00 | 0.15 | 0.00 | 86 | 1016.5 |
| 20260510121850 | 7 | 359 | 0.0 | 3.2 | 0.00 | 0.15 | 0.00 | 87 | 1016.5 |
| 20260510121333 | 7 | 359 | 1.6 | 3.2 | 0.00 | 0.15 | 0.00 | 87 | 1016.4 |
| 20260510120830 | 7 | 359 | 0.0 | 3.2 | 0.00 | 0.15 | 0.00 | 88 | 1016.4 |
| 20260510120335 | 7 | 359 | 0.0 | 3.2 | 0.00 | 0.15 | 0.00 | 88 | 1016.3 |
| 20260510115832 | 7 | 358 | 0.0 | 1.6 | 0.00 | 0.15 | 0.00 | 88 | 1016.3 |
| 20260510115326 | 7 | 358 | 0.0 | 4.8 | 0.00 | 0.15 | 0.00 | 88 | 1016.2 |
| 20260510114828 | 6 | 358 | 0.0 | 4.8 | 0.00 | 0.15 | 0.00 | 88 | 1016.1 |
| 20260510114324 | 6 | 358 | 0.0 | 1.6 | 0.00 | 0.15 | 0.00 | 88 | 1016.2 |
| 20260510113827 | 6 | 358 | 0.0 | 1.6 | 0.00 | 0.15 | 0.00 | 89 | 1016.0 |
| 20260510113350 | 6 | 358 | 0.0 | 1.6 | 0.00 | 0.15 | 0.00 | 89 | 1015.8 |
| 20260510112825 | 6 | 358 | 0.0 | 1.6 | 0.00 | 0.15 | 0.00 | 88 | 1015.6 |
| 20260510112322 | 5 | 358 | 0.0 | 1.6 | 0.00 | 0.15 | 0.00 | 87 | 1015.5 |
| 20260510111826 | 5 | 358 | 0.0 | 1.6 | 0.00 | 0.15 | 0.00 | 87 | 1015.4 |
| 20260510111351 | 5 | 360 | 0.0 | 1.6 | 0.00 | 0.15 | 0.00 | 87 | 1015.3 |
| 20260510110833 | 5 | 360 | 0.0 | 1.6 | 0.00 | 0.15 | 0.00 | 86 | 1015.1 |
| 20260510110330 | 5 | 360 | 0.0 | 1.6 | 0.00 | 0.15 | 0.00 | 86 | 1015.1 |
| 20260510105832 | 5 | 360 | 0.0 | 1.6 | 0.00 | 0.15 | 0.00 | 85 | 1015.0 |
| 20260510105335 | 5 | 360 | 0.0 | 1.6 | 0.00 | 0.15 | 0.00 | 85 | 1015.0 |
| 20260510104832 | 5 | 360 | 0.0 | 1.6 | 0.00 | 0.15 | 0.00 | 85 | 1015.0 |
| 20260510104356 | 5 | 360 | 0.0 | 0.0 | 0.00 | 0.15 | 0.00 | 85 | 1015.0 |
| 20260510103832 | 5 | 360 | 0.0 | 0.0 | 0.00 | 0.15 | 0.00 | 85 | 1014.9 |
| 20260510103335 | 5 | 360 | 0.0 | 1.6 | 0.00 | 0.15 | 0.00 | 85 | 1014.8 |
| 20260510102831 | 5 | 360 | 0.0 | 1.6 | 0.00 | 0.15 | 0.00 | 85 | 1014.8 |
| 20260510102335 | 5 | 360 | 0.0 | 1.6 | 0.00 | 0.15 | 0.00 | 84 | 1014.7 |
| 20260510101832 | 5 | 360 | 0.0 | 1.6 | 0.00 | 0.15 | 0.00 | 84 | 1014.7 |
| 20260510101336 | 5 | 360 | 0.0 | 1.6 | 0.00 | 0.15 | 0.00 | 84 | 1014.6 |
| 20260510100834 | 6 | 360 | 0.0 | 0.0 | 0.00 | 0.15 | 0.00 | 84 | 1014.5 |
| 20260510100338 | 6 | 360 | 0.0 | 1.6 | 0.00 | 0.15 | 0.00 | 84 | 1014.5 |
| 20260510095835 | 6 | 360 | 0.0 | 1.6 | 0.00 | 0.15 | 0.00 | 84 | 1014.4 |
| 20260510095331 | 6 | 360 | 0.0 | 1.6 | 0.00 | 0.15 | 0.00 | 84 | 1014.4 |
| 20260510094833 | 6 | 360 | 0.0 | 0.0 | 0.00 | 0.15 | 0.00 | 83 | 1014.3 |
| 20260510094329 | 6 | 360 | 0.0 | 0.0 | 0.00 | 0.15 | 0.00 | 83 | 1014.2 |
| 20260510093854 | 6 | 360 | 0.0 | 1.6 | 0.00 | 0.15 | 0.00 | 83 | 1014.2 |
| 20260510093337 | 6 | 360 | 0.0 | 3.2 | 0.00 | 0.15 | 0.00 | 83 | 1014.1 |
| 20260510092834 | 6 | 360 | 1.6 | 3.2 | 0.00 | 0.15 | 0.00 | 83 | 1014.1 |
| 20260510092340 | 6 | 360 | 0.0 | 1.6 | 0.00 | 0.15 | 0.00 | 83 | 1014.0 |
| 20260510091834 | 6 | 360 | 0.0 | 3.2 | 0.00 | 0.15 | 0.00 | 83 | 1013.9 |
| 20260510091329 | 6 | 360 | 0.0 | 4.8 | 0.00 | 0.15 | 0.00 | 83 | 1013.9 |
| 20260510090833 | 6 | 360 | 1.6 | 4.8 | 0.00 | 0.15 | 0.00 | 83 | 1013.9 |
| 20260510090331 | 7 | 360 | 1.6 | 3.2 | 0.00 | 0.15 | 0.00 | 83 | 1013.8 |
| 20260510085832 | 7 | 360 | 3.2 | 8.0 | 0.00 | 0.15 | 0.00 | 82 | 1013.5 |
| 20260510085330 | 7 | 1 | 3.2 | 8.0 | 0.00 | 0.15 | 0.00 | 82 | 1013.3 |
| 20260510084832 | 7 | 7 | 3.2 | 4.8 | 0.00 | 0.15 | 0.00 | 82 | 1013.2 |
| 20260510084324 | 7 | 360 | 3.2 | 8.0 | 0.00 | 0.15 | 0.00 | 82 | 1013.1 |
| 20260510083820 | 7 | 4 | 4.8 | 8.0 | 0.00 | 0.15 | 0.00 | 82 | 1013.0 |
| 20260510083324 | 7 | 8 | 1.6 | 8.0 | 0.00 | 0.15 | 0.00 | 81 | 1012.9 |
| 20260510082820 | 7 | 9 | 3.2 | 4.8 | 0.00 | 0.15 | 0.00 | 81 | 1012.8 |
| 20260510082323 | 7 | 10 | 3.2 | 4.8 | 0.00 | 0.15 | 0.00 | 80 | 1012.6 |
| 20260510081818 | 7 | 22 | 1.6 | 4.8 | 0.00 | 0.15 | 0.00 | 80 | 1012.6 |
| 20260510081341 | 7 | 14 | 1.6 | 9.7 | 0.00 | 0.15 | 0.00 | 80 | 1012.4 |
| 20260510080825 | 8 | 18 | 4.8 | 9.7 | 0.00 | 0.15 | 0.00 | 80 | 1012.3 |
| 20260510080403 | 8 | 15 | 4.8 | 9.7 | 0.00 | 0.15 | 0.00 | 79 | 1012.3 |
| 20260510075817 | 8 | 13 | 3.2 | 12.9 | 0.00 | 0.15 | 0.00 | 79 | 1012.2 |
| 20260510075342 | 8 | 31 | 3.2 | 12.9 | 0.00 | 0.15 | 0.00 | 79 | 1012.0 |
| 20260510074838 | 8 | 30 | 1.6 | 4.8 | 0.00 | 0.15 | 0.00 | 78 | 1011.9 |
| 20260510074341 | 8 | 4 | 1.6 | 4.8 | 0.00 | 0.15 | 0.00 | 77 | 1011.8 |
| 20260510073818 | 8 | 16 | 1.6 | 6.4 | 0.00 | 0.15 | 0.00 | 77 | 1011.7 |
| 20260510073342 | 8 | 20 | 1.6 | 6.4 | 0.00 | 0.15 | 0.00 | 76 | 1011.6 |
| 20260510072818 | 8 | 349 | 0.0 | 3.2 | 0.00 | 0.15 | 0.00 | 76 | 1011.4 |
| 20260510072342 | 8 | 348 | 0.0 | 0.0 | 0.00 | 0.15 | 0.00 | 76 | 1011.2 |
| 20260510071817 | 8 | 348 | 0.0 | 0.0 | 0.00 | 0.15 | 0.00 | 76 | 1011.1 |
| 20260510071336 | 8 | 348 | 0.0 | 0.0 | 0.00 | 0.15 | 0.00 | 76 | 1011.1 |
| 20260510070335 | 8 | 348 | 0.0 | 0.0 | 0.00 | 0.15 | 0.00 | 75 | 1010.9 |
| 20260510065831 | 9 | 348 | 0.0 | 1.6 | 0.00 | 0.15 | 0.00 | 76 | 1010.9 |
| 20260510065333 | 9 | 348 | 0.0 | 1.6 | 0.00 | 0.15 | 0.00 | 76 | 1010.8 |
| 20260510064830 | 9 | 348 | 0.0 | 1.6 | 0.00 | 0.15 | 0.00 | 75 | 1010.7 |
| 20260510064333 | 9 | 348 | 0.0 | 1.6 | 0.00 | 0.15 | 0.00 | 75 | 1010.6 |
| 20260510063829 | 9 | 349 | 0.0 | 1.6 | 0.00 | 0.15 | 0.00 | 75 | 1010.7 |
| 20260510063354 | 9 | 349 | 0.0 | 3.2 | 0.00 | 0.15 | 0.00 | 75 | 1010.6 |
| 20260510062858 | 9 | 348 | 1.6 | 8.0 | 0.00 | 0.15 | 0.00 | 75 | 1010.5 |
| 20260510062334 | 9 | 353 | 3.2 | 8.0 | 0.00 | 0.15 | 0.00 | 75 | 1010.4 |
| 20260510061838 | 10 | 358 | 3.2 | 4.8 | 0.00 | 0.15 | 0.00 | 75 | 1010.3 |
| 20260510061334 | 10 | 1 | 3.2 | 4.8 | 0.00 | 0.15 | 0.00 | 75 | 1010.3 |
| 20260510060835 | 10 | 2 | 4.8 | 4.8 | 0.00 | 0.15 | 0.00 | 75 | 1010.3 |
| 20260510060358 | 10 | 4 | 3.2 | 6.4 | 0.00 | 0.15 | 0.00 | 74 | 1010.4 |
| 20260510055853 | 10 | 5 | 4.8 | 6.4 | 0.00 | 0.15 | 0.00 | 74 | 1010.3 |
| 20260510055336 | 10 | 7 | 4.8 | 6.4 | 0.00 | 0.15 | 0.00 | 74 | 1010.3 |
| 20260510054831 | 10 | 3 | 3.2 | 4.8 | 0.00 | 0.15 | 0.00 | 74 | 1010.3 |
| 20260510054333 | 10 | 3 | 3.2 | 8.0 | 0.00 | 0.15 | 0.00 | 73 | 1010.3 |
| 20260510053828 | 10 | 359 | 4.8 | 8.0 | 0.00 | 0.15 | 0.00 | 73 | 1010.2 |
| 20260510053331 | 11 | 355 | 6.4 | 8.0 | 0.00 | 0.15 | 0.00 | 72 | 1010.2 |
| 20260510052857 | 11 | 360 | 4.8 | 8.0 | 0.00 | 0.15 | 0.00 | 72 | 1010.1 |
| 20260510052331 | 11 | 4 | 4.8 | 8.0 | 0.00 | 0.15 | 0.00 | 71 | 1010.1 |
| 20260510051834 | 11 | 2 | 4.8 | 9.7 | 0.00 | 0.15 | 0.00 | 71 | 1009.9 |
| 20260510051329 | 11 | 2 | 6.4 | 12.9 | 0.00 | 0.15 | 0.00 | 71 | 1009.8 |
| 20260510050824 | 11 | 355 | 6.4 | 12.9 | 0.00 | 0.15 | 0.00 | 71 | 1009.8 |
| 20260510050326 | 12 | 1 | 8.0 | 12.9 | 0.00 | 0.15 | 0.00 | 71 | 1009.7 |
| 20260510045844 | 12 | 355 | 9.7 | 12.9 | 0.00 | 0.15 | 0.00 | 70 | 1009.7 |
| 20260510045317 | 12 | 358 | 8.0 | 9.7 | 0.00 | 0.15 | 0.00 | 70 | 1009.7 |
| 20260510044842 | 12 | 357 | 8.0 | 12.9 | 0.00 | 0.15 | 0.00 | 71 | 1009.6 |
| 20260510044337 | 12 | 4 | 9.7 | 12.9 | 0.00 | 0.15 | 0.00 | 70 | 1009.5 |
| 20260510043820 | 12 | 2 | 8.0 | 16.1 | 0.00 | 0.15 | 0.00 | 70 | 1009.2 |
| 20260510043317 | 13 | 5 | 8.0 | 16.1 | 0.00 | 0.15 | 0.00 | 70 | 1009.1 |
| 20260510042841 | 13 | 3 | 9.7 | 16.1 | 0.00 | 0.15 | 0.00 | 69 | 1009.0 |
| 20260510042319 | 13 | 359 | 11.3 | 16.1 | 0.00 | 0.15 | 0.00 | 68 | 1009.0 |
| 20260510041842 | 13 | 6 | 6.4 | 12.9 | 0.00 | 0.15 | 0.00 | 66 | 1008.9 |
| 20260510041339 | 13 | 324 | 0.0 | 9.7 | 0.00 | 0.15 | 0.00 | 64 | 1008.7 |
| 20260510040821 | 13 | 320 | 1.6 | 9.7 | 0.00 | 0.15 | 0.00 | 63 | 1008.7 |
| 20260510040319 | 13 | 310 | 3.2 | 9.7 | 0.00 | 0.15 | 0.00 | 64 | 1008.6 |
| 20260510035856 | 13 | 307 | 0.0 | 4.8 | 0.00 | 0.15 | 0.15 | 66 | 1008.6 |
| 20260510035339 | 13 | 320 | 1.6 | 6.4 | 0.00 | 0.15 | 0.15 | 66 | 1008.5 |
| 20260510034833 | 13 | 310 | 1.6 | 9.7 | 0.00 | 0.15 | 0.15 | 65 | 1008.5 |
| 20260510034317 | 13 | 291 | 3.2 | 8.0 | 0.00 | 0.15 | 0.15 | 65 | 1008.4 |
| 20260510033833 | 13 | 324 | 4.8 | 8.0 | 0.00 | 0.15 | 0.15 | 66 | 1008.3 |
| 20260510033337 | 13 | 285 | 4.8 | 8.0 | 0.00 | 0.15 | 0.15 | 67 | 1008.1 |
| 20260510032833 | 13 | 283 | 4.8 | 9.7 | 0.00 | 0.15 | 0.15 | 70 | 1008.0 |
| 20260510032337 | 13 | 301 | 4.8 | 9.7 | 0.00 | 0.15 | 0.15 | 72 | 1007.8 |
| 20260510031833 | 13 | 291 | 4.8 | 8.0 | 0.00 | 0.15 | 0.15 | 75 | 1007.7 |
| 20260510031338 | 13 | 310 | 1.6 | 6.4 | 0.00 | 0.15 | 0.15 | 78 | 1007.6 |
| 20260510030835 | 13 | 311 | 3.2 | 6.4 | 0.00 | 0.15 | 0.15 | 80 | 1007.7 |
| 20260510030339 | 13 | 293 | 3.2 | 6.4 | 0.00 | 0.15 | 0.15 | 84 | 1007.3 |
| 20260510025835 | 13 | 262 | 0.0 | 1.6 | 0.00 | 0.15 | 0.15 | 88 | 1007.3 |
| 20260510025330 | 13 | 262 | 0.0 | 1.6 | 0.00 | 0.15 | 0.15 | 88 | 1007.1 |
| 20260510024834 | 14 | 262 | 0.0 | 3.2 | 0.00 | 0.15 | 0.15 | 88 | 1007.0 |
| 20260510024359 | 14 | 262 | 0.0 | 3.2 | 0.00 | 0.15 | 0.15 | 88 | 1006.8 |
| 20260510023834 | 14 | 262 | 0.0 | 0.0 | 0.00 | 0.15 | 0.15 | 88 | 1006.6 |
| 20260510023337 | 14 | 262 | 0.0 | 3.2 | 0.00 | 0.15 | 0.15 | 88 | 1006.4 |
| 20260510022833 | 14 | 262 | 1.6 | 3.2 | 0.00 | 0.15 | 0.15 | 88 | 1006.3 |
| 20260510022338 | 14 | 237 | 1.6 | 3.2 | 0.00 | 0.15 | 0.15 | 88 | 1006.3 |
| 20260510021834 | 14 | 237 | 0.0 | 1.6 | 0.00 | 0.15 | 0.15 | 88 | 1005.9 |
| 20260510021338 | 14 | 237 | 0.0 | 1.6 | 0.00 | 0.15 | 0.15 | 87 | 1005.8 |
| 20260510020832 | 14 | 237 | 0.0 | 3.2 | 0.00 | 0.15 | 0.15 | 87 | 1005.8 |
| 20260510020327 | 14 | 237 | 1.6 | 3.2 | 0.00 | 0.15 | 0.15 | 87 | 1005.8 |
| 20260510015831 | 14 | 237 | 1.6 | 3.2 | 0.00 | 0.15 | 0.15 | 87 | 1005.8 |
| 20260510015326 | 14 | 237 | 1.6 | 6.4 | 0.00 | 0.15 | 0.15 | 87 | 1005.7 |
| 20260510014829 | 14 | 237 | 3.2 | 6.4 | 0.00 | 0.15 | 0.15 | 87 | 1005.7 |
| 20260510014325 | 14 | 237 | 1.6 | 3.2 | 0.00 | 0.15 | 0.15 | 86 | 1005.5 |
| 20260510013829 | 14 | 237 | 1.6 | 3.2 | 0.00 | 0.15 | 0.15 | 86 | 1005.6 |
| 20260510013326 | 14 | 238 | 1.6 | 4.8 | 0.00 | 0.15 | 0.15 | 86 | 1005.4 |
| 20260510012823 | 14 | 238 | 3.2 | 4.8 | 0.00 | 0.15 | 0.15 | 86 | 1005.4 |
| 20260510012326 | 14 | 238 | 3.2 | 6.4 | 0.00 | 0.15 | 0.15 | 86 | 1005.3 |
| 20260510011822 | 14 | 238 | 3.2 | 6.4 | 0.00 | 0.15 | 0.15 | 86 | 1005.2 |
| 20260510011347 | 15 | 238 | 3.2 | 6.4 | 0.00 | 0.15 | 0.15 | 86 | 1005.2 |
| 20260510010830 | 15 | 240 | 3.2 | 6.4 | 0.00 | 0.15 | 0.15 | 85 | 1005.1 |
| 20260510010326 | 15 | 241 | 4.8 | 6.4 | 0.00 | 0.15 | 0.15 | 85 | 1005.3 |
| 20260510005828 | 15 | 241 | 4.8 | 6.4 | 0.00 | 0.15 | 0.15 | 85 | 1005.2 |
| 20260510005328 | 15 | 237 | 3.2 | 6.4 | 0.00 | 0.15 | 0.15 | 84 | 1004.9 |
| 20260510004827 | 15 | 237 | 4.8 | 8.0 | 0.00 | 0.15 | 0.15 | 84 | 1004.9 |
| 20260510004330 | 15 | 233 | 4.8 | 9.7 | 0.00 | 0.15 | 0.15 | 84 | 1004.8 |
| 20260510003829 | 15 | 235 | 6.4 | 12.9 | 0.00 | 0.15 | 0.15 | 84 | 1004.9 |
| 20260510003333 | 15 | 227 | 4.8 | 9.7 | 0.00 | 0.15 | 0.15 | 84 | 1004.7 |
| 20260510002831 | 15 | 227 | 4.8 | 14.5 | 0.00 | 0.15 | 0.15 | 84 | 1004.8 |
| 20260510002334 | 15 | 231 | 6.4 | 14.5 | 0.00 | 0.15 | 0.15 | 83 | 1004.7 |
| 20260510001829 | 15 | 232 | 4.8 | 8.0 | 0.00 | 0.15 | 0.15 | 83 | 1004.5 |
| 20260510001334 | 15 | 249 | 3.2 | 9.7 | 0.00 | 0.15 | 0.15 | 83 | 1004.6 |
| 20260510000830 | 15 | 233 | 4.8 | 6.4 | 0.00 | 0.15 | 0.15 | 83 | 1004.3 |
| 20260510000326 | 15 | 296 | 1.6 | 9.7 | 0.00 | 0.15 | 0.15 | 83 | 1004.4 |
| 20260509235852 | 15 | 248 | 4.8 | 16.1 | 0.00 | 0.15 | 0.15 | 83 | 1004.3 |
| 20260509235336 | 15 | 239 | 4.8 | 14.5 | 0.00 | 0.15 | 0.15 | 83 | 1004.3 |
| 20260509234901 | 15 | 247 | 4.8 | 9.7 | 0.00 | 0.15 | 0.15 | 83 | 1004.3 |
| 20260509234337 | 15 | 232 | 6.4 | 14.5 | 0.00 | 0.15 | 0.15 | 83 | 1004.1 |
| 20260509233842 | 15 | 237 | 4.8 | 12.9 | 0.00 | 0.15 | 0.15 | 83 | 1004.2 |
| 20260509233404 | 16 | 235 | 6.4 | 16.1 | 0.00 | 0.15 | 0.15 | 83 | 1004.2 |
| 20260509232820 | 16 | 218 | 9.7 | 16.1 | 0.00 | 0.15 | 0.15 | 83 | 1004.1 |
| 20260509232347 | 16 | 216 | 9.7 | 16.1 | 0.00 | 0.15 | 0.15 | 84 | 1004.1 |
| 20260509231824 | 15 | 235 | 8.0 | 16.1 | 0.00 | 0.15 | 0.15 | 84 | 1004.0 |
| 20260509231324 | 15 | 227 | 8.0 | 16.1 | 0.00 | 0.15 | 0.15 | 84 | 1004.0 |
| 20260509230826 | 15 | 232 | 6.4 | 19.3 | 0.00 | 0.15 | 0.15 | 85 | 1003.9 |
| 20260509230323 | 15 | 222 | 9.7 | 19.3 | 0.00 | 0.15 | 0.15 | 84 | 1003.9 |
| 20260509225824 | 15 | 217 | 11.3 | 17.7 | 0.00 | 0.15 | 0.15 | 84 | 1003.8 |
| 20260509225321 | 15 | 219 | 9.7 | 16.1 | 0.00 | 0.15 | 0.15 | 83 | 1003.8 |
| 20260509224825 | 15 | 234 | 8.0 | 16.1 | 0.00 | 0.15 | 0.15 | 82 | 1003.6 |
| 20260509224324 | 15 | 220 | 8.0 | 12.9 | 0.00 | 0.15 | 0.15 | 82 | 1003.5 |
| 20260509223827 | 16 | 217 | 6.4 | 14.5 | 0.00 | 0.15 | 0.15 | 82 | 1003.4 |
| 20260509223325 | 16 | 225 | 8.0 | 19.3 | 0.00 | 0.15 | 0.15 | 82 | 1003.4 |
| 20260509222822 | 16 | 235 | 8.0 | 19.3 | 0.00 | 0.15 | 0.15 | 82 | 1003.3 |
| 20260509222325 | 16 | 225 | 8.0 | 16.1 | 0.00 | 0.15 | 0.15 | 82 | 1003.3 |
| 20260509221849 | 16 | 224 | 9.7 | 16.1 | 0.00 | 0.15 | 0.15 | 82 | 1003.2 |
| 20260509221347 | 16 | 229 | 8.0 | 14.5 | 0.03 | 0.15 | 0.15 | 83 | 1003.2 |
| 20260509220830 | 16 | 234 | 8.0 | 14.5 | 0.03 | 0.15 | 0.15 | 83 | 1003.2 |
| 20260509220329 | 16 | 217 | 6.4 | 14.5 | 0.03 | 0.15 | 0.15 | 83 | 1003.1 |
| 20260509215833 | 16 | 216 | 6.4 | 16.1 | 0.03 | 0.15 | 0.15 | 83 | 1003.1 |
| 20260509215330 | 16 | 229 | 9.7 | 17.7 | 0.03 | 0.15 | 0.15 | 82 | 1003.2 |
| 20260509214831 | 16 | 235 | 6.4 | 17.7 | 0.03 | 0.15 | 0.15 | 82 | 1003.0 |
| 20260509214331 | 16 | 234 | 8.0 | 17.7 | 0.05 | 0.15 | 0.15 | 82 | 1003.0 |
| 20260509213833 | 16 | 235 | 8.0 | 17.7 | 0.05 | 0.15 | 0.15 | 82 | 1003.0 |
| 20260509213329 | 16 | 239 | 9.7 | 20.9 | 0.05 | 0.15 | 0.15 | 81 | 1003.0 |
| 20260509212852 | 16 | 232 | 11.3 | 20.9 | 0.05 | 0.15 | 0.15 | 82 | 1003.0 |
| 20260509212328 | 16 | 216 | 8.0 | 17.7 | 0.05 | 0.15 | 0.15 | 83 | 1003.0 |
| 20260509211831 | 15 | 238 | 9.7 | 14.5 | 0.05 | 0.15 | 0.15 | 82 | 1003.1 |
| 20260509211330 | 15 | 235 | 6.4 | 16.1 | 0.03 | 0.13 | 0.13 | 82 | 1003.2 |
| 20260509210834 | 15 | 231 | 9.7 | 16.1 | 0.03 | 0.13 | 0.13 | 79 | 1003.2 |
| 20260509210331 | 16 | 229 | 9.7 | 16.1 | 0.03 | 0.13 | 0.13 | 79 | 1003.4 |
| 20260509205826 | 16 | 227 | 8.0 | 22.5 | 0.05 | 0.13 | 0.13 | 78 | 1003.5 |
| 20260509205329 | 16 | 233 | 9.7 | 22.5 | 0.08 | 0.13 | 0.13 | 77 | 1003.5 |
| 20260509204827 | 16 | 241 | 12.9 | 19.3 | 0.13 | 0.13 | 0.13 | 73 | 1003.2 |
| 20260509204351 | 17 | 238 | 9.7 | 19.3 | 0.10 | 0.10 | 0.10 | 75 | 1002.8 |
| 20260509203833 | 17 | 247 | 9.7 | 16.1 | 0.10 | 0.10 | 0.10 | 78 | 1002.7 |
| 20260509203330 | 17 | 243 | 8.0 | 16.1 | 0.10 | 0.10 | 0.10 | 79 | 1002.4 |
| 20260509202835 | 17 | 233 | 8.0 | 17.7 | 0.10 | 0.10 | 0.10 | 79 | 1002.5 |
| 20260509202332 | 17 | 230 | 9.7 | 20.9 | 0.10 | 0.10 | 0.10 | 79 | 1002.4 |
| 20260509201830 | 16 | 231 | 11.3 | 24.1 | 0.10 | 0.10 | 0.10 | 82 | 1002.3 |
| 20260509201333 | 16 | 219 | 12.9 | 24.1 | 0.10 | 0.10 | 0.10 | 86 | 1002.3 |
| 20260509200854 | 16 | 235 | 11.3 | 19.3 | 0.10 | 0.10 | 0.10 | 88 | 1002.5 |
| 20260509200328 | 16 | 227 | 11.3 | 19.3 | 0.10 | 0.10 | 0.10 | 87 | 1002.6 |
| 20260509195831 | 16 | 235 | 6.4 | 20.9 | 0.08 | 0.08 | 0.08 | 83 | 1002.7 |
| 20260509195324 | 16 | 227 | 11.3 | 20.9 | 0.05 | 0.05 | 0.05 | 81 | 1002.8 |
| 20260509194821 | 17 | 237 | 11.3 | 22.5 | 0.00 | 0.00 | 0.00 | 81 | 1002.7 |
| 20260509194344 | 17 | 226 | 11.3 | 19.3 | 0.00 | 0.00 | 0.00 | 79 | 1002.5 |
| 20260509193827 | 17 | 210 | 11.3 | 20.9 | 0.00 | 0.00 | 0.00 | 76 | 1002.6 |
| 20260509193323 | 17 | 229 | 12.9 | 20.9 | 0.00 | 0.00 | 0.00 | 74 | 1002.5 |
| 20260509192826 | 18 | 233 | 12.9 | 20.9 | 0.00 | 0.00 | 0.00 | 74 | 1002.5 |
| 20260509192323 | 18 | 218 | 11.3 | 20.9 | 0.00 | 0.00 | 0.00 | 75 | 1002.6 |
| 20260509191820 | 18 | 228 | 12.9 | 19.3 | 0.00 | 0.00 | 0.00 | 75 | 1002.6 |
| 20260509191322 | 18 | 228 | 12.9 | 19.3 | 0.00 | 0.00 | 0.00 | 76 | 1002.7 |
| 20260509190844 | 18 | 244 | 9.7 | 17.7 | 0.00 | 0.00 | 0.00 | 74 | 1002.6 |